| time (UTC) | temp F | wind direction | speed knots | gust knots | rain 1hr in | rain 24hr in | rain mn in | humidity % | barometer mb |
| 20260504174523 | 65 | 360 | 9.6 | 18.2 | 0.00 | 0.00 | 0.00 | 27 | 1005.8 |
| 20260504173006 | 64 | 360 | 7.8 | 16.5 | 0.00 | 0.00 | 0.00 | 27 | 1005.6 |
| 20260504171548 | 64 | 360 | 13.0 | 20.0 | 0.00 | 0.00 | 0.00 | 26 | 1005.8 |
| 20260504090110 | 45 | 360 | 0.0 | 1.7 | 0.00 | 0.00 | 0.00 | 55 | 1003.5 |
| 20260504081538 | 45 | 360 | 1.7 | 3.5 | 0.00 | 0.00 | 0.00 | 54 | 1003.7 |
| 20260504050021 | 51 | 360 | 0.9 | 2.6 | 0.00 | 0.00 | 0.00 | 51 | 1005.5 |
| 20260504044601 | 50 | 360 | 0.0 | 2.6 | 0.00 | 0.00 | 0.00 | 52 | 1005.8 |
| 20260504043033 | 50 | 360 | 1.7 | 3.5 | 0.00 | 0.00 | 0.00 | 51 | 1005.9 |
| 20260504041501 | 51 | 360 | 0.0 | 1.7 | 0.00 | 0.00 | 0.00 | 49 | 1006.1 |
| 20260504040048 | 52 | 360 | 0.0 | 0.0 | 0.00 | 0.00 | 0.00 | 48 | 1006.3 |
| 20260504034505 | 53 | 360 | 0.9 | 2.6 | 0.00 | 0.00 | 0.00 | 46 | 1006.4 |
| 20260504033047 | 54 | 360 | 0.9 | 2.6 | 0.00 | 0.00 | 0.00 | 45 | 1006.5 |
| 20260504031523 | 54 | 360 | 0.0 | 5.2 | 0.00 | 0.00 | 0.00 | 45 | 1006.6 |
| 20260504024531 | 57 | 360 | 0.0 | 1.7 | 0.00 | 0.00 | 0.00 | 39 | 1006.9 |
| 20260504023108 | 58 | 360 | 0.0 | 3.5 | 0.00 | 0.00 | 0.00 | 38 | 1006.9 |
| 20260504021542 | 59 | 360 | 0.0 | 3.5 | 0.00 | 0.00 | 0.00 | 38 | 1006.8 |
| 20260504020007 | 62 | 360 | 0.0 | 0.9 | 0.00 | 0.00 | 0.00 | 35 | 1006.6 |
| 20260504014553 | 64 | 360 | 1.7 | 4.3 | 0.00 | 0.00 | 0.00 | 36 | 1006.8 |
| 20260504013029 | 65 | 360 | 0.0 | 0.9 | 0.00 | 0.00 | 0.00 | 33 | 1006.8 |
| 20260504011608 | 67 | 360 | 0.0 | 0.0 | 0.00 | 0.00 | 0.00 | 33 | 1007.1 |
| 20260504010045 | 68 | 360 | 0.0 | 0.9 | 0.00 | 0.00 | 0.00 | 28 | 1007.3 |
| 20260504004618 | 68 | 360 | 0.0 | 1.7 | 0.00 | 0.00 | 0.00 | 26 | 1007.7 |
| 20260504003054 | 68 | 360 | 0.9 | 2.6 | 0.00 | 0.00 | 0.00 | 25 | 1007.8 |
| 20260504001525 | 70 | 360 | 1.7 | 7.0 | 0.00 | 0.00 | 0.00 | 24 | 1008.0 |
| 20260504000139 | 70 | 360 | 1.7 | 7.0 | 0.00 | 0.00 | 0.00 | 22 | 1008.1 |
| 20260503234526 | 72 | 360 | 4.3 | 7.8 | 0.00 | 0.00 | 0.00 | 20 | 1008.4 |
| 20260503233108 | 71 | 360 | 0.9 | 7.0 | 0.00 | 0.00 | 0.00 | 22 | 1008.6 |
| 20260503231536 | 71 | 360 | 1.7 | 7.0 | 0.00 | 0.00 | 0.00 | 21 | 1008.7 |
| 20260503230002 | 71 | 360 | 3.5 | 7.0 | 0.00 | 0.00 | 0.00 | 21 | 1008.6 |
| 20260503224535 | 71 | 360 | 1.7 | 5.2 | 0.00 | 0.00 | 0.00 | 22 | 1008.7 |
| 20260503223111 | 71 | 360 | 4.3 | 8.7 | 0.00 | 0.00 | 0.00 | 21 | 1008.8 |
| 20260503221549 | 71 | 360 | 1.7 | 9.6 | 0.00 | 0.00 | 0.00 | 22 | 1008.9 |
| 20260503220007 | 71 | 360 | 3.5 | 10.4 | 0.00 | 0.00 | 0.00 | 22 | 1009.1 |
| 20260503214545 | 71 | 360 | 1.7 | 4.3 | 0.00 | 0.00 | 0.00 | 24 | 1009.3 |
| 20260503213014 | 71 | 360 | 1.7 | 7.8 | 0.00 | 0.00 | 0.00 | 23 | 1009.5 |
| 20260503211608 | 71 | 360 | 1.7 | 5.2 | 0.00 | 0.00 | 0.00 | 24 | 1009.7 |
| 20260503210027 | 71 | 360 | 2.6 | 8.7 | 0.00 | 0.00 | 0.00 | 20 | 1010.2 |
| 20260503204553 | 71 | 360 | 0.9 | 8.7 | 0.00 | 0.00 | 0.00 | 21 | 1010.4 |
| 20260503203035 | 71 | 360 | 1.7 | 8.7 | 0.00 | 0.00 | 0.00 | 22 | 1010.5 |
| 20260503201604 | 71 | 360 | 0.9 | 7.8 | 0.00 | 0.00 | 0.00 | 22 | 1010.7 |
| 20260503200029 | 71 | 360 | 1.7 | 9.6 | 0.00 | 0.00 | 0.00 | 22 | 1010.9 |
| 20260503194610 | 71 | 360 | 1.7 | 7.8 | 0.00 | 0.00 | 0.00 | 25 | 1011.0 |
| 20260503193038 | 71 | 360 | 0.9 | 3.5 | 0.00 | 0.00 | 0.00 | 23 | 1011.1 |
| 20260503191508 | 70 | 360 | 0.9 | 4.3 | 0.00 | 0.00 | 0.00 | 26 | 1011.3 |